Location: Oberkirch
(48.5323°N, 8.0787°E)
Time: 11:58:43
(UTC+00:00)

Courier 1B Rocket - All Passes

Search period start: 16 February 2026 00:00
Search period end: 26 February 2026 00:00
Orbit: 920 x 1201 km, 28.2° (Epoch: 16 February)

Date Brightness Start Highest point End Pass type
(mag) Time Alt. Az. Time Alt. Az. Time Alt. Az.
16 Feb - 19:59:06 10° S 20:00:17 10° S 20:01:28 10° SSE visible
16 Feb - 21:49:57 10° SSW 21:52:17 12° S 21:54:40 10° SSE night (unlit)
17 Feb - 20:49:12 10° SSW 20:51:28 12° S 20:53:46 10° SSE visible
18 Feb - 19:48:53 10° SSW 19:50:40 11° S 19:52:28 10° SSE visible
18 Feb - 21:41:59 10° SSW 21:42:40 10° S 21:43:20 10° S night (unlit)
19 Feb - 20:40:15 10° SSW 20:41:52 11° S 20:43:29 10° S visible
20 Feb - 19:39:22 10° SSW 19:41:04 11° S 19:42:48 10° SSE visible
21 Feb - 18:39:00 10° S 18:40:18 11° S 18:41:36 10° SSE visible
22 Feb - 19:30:39 10° SSW 19:31:29 10° S 19:32:18 10° S visible
23 Feb - 18:29:22 10° SSW 18:30:43 11° S 18:32:03 10° SSE visible
24 Feb - 17:28:45 10° S 17:29:57 11° S 17:31:09 10° SSE visible
